Location: Rotheul
(50.2849°N, 11.2349°E)
Time: 07:11:34
(UTC+01:00)

OTV 5 (USA 277) - Visible Passes

Search period start: 22 February 2019 00:00
Search period end: 04 March 2019 00:00
Orbit: 342 x 346 km, 54.5° (Epoch: 17 February)

Date Brightness Start Highest point End Pass type
(mag) Time Alt. Az. Time Alt. Az. Time Alt. Az.
24 Feb ? 20:01:16 10° SW 20:01:57 15° SW 20:01:57 15° SW visible
25 Feb ? 18:50:57 10° S 18:53:04 19° SE 18:53:53 17° ESE visible
25 Feb ? 20:24:47 10° WSW 20:25:20 14° WSW 20:25:20 14° WSW visible
26 Feb ? 19:13:43 10° SW 19:16:30 45° SSE 19:17:09 37° ESE visible
27 Feb ? 19:37:13 10° WSW 19:40:07 79° NNW 19:40:19 72° NNE visible
28 Feb ? 18:26:11 10° SW 18:28:56 43° SE 18:31:43 10° ENE visible
28 Feb ? 20:01:04 10° W 20:03:23 39° NW 20:03:23 39° NW visible
01 Mar ? 18:49:40 10° WSW 18:52:32 81° NNW 18:54:57 14° ENE visible
01 Mar ? 20:25:01 10° WNW 20:26:23 22° NW 20:26:23 22° NW visible
02 Mar ? 19:13:29 10° W 19:16:18 45° NNW 19:17:54 21° NE visible
02 Mar ? 20:48:53 10° WNW 20:49:20 13° WNW 20:49:20 13° WNW visible
03 Mar ? 19:37:26 10° WNW 19:40:08 34° N 19:40:48 30° NNE visible
